FW9390 Weather Reports


time (UTC)temp
C
wind
direction
speed
KPH
gust
KPH
rain 1hr
cm
rain 24hr
cm
rain mn
cm
humidity
%
barometer
mb
20260505214539 9 360 16.1 25.7 0.00 0.00 0.00 82 1014.0
20260505213044 9 10 17.7 25.7 0.00 0.00 0.00 82 1013.9
20260505211543 10 355 16.1 24.1 0.00 0.00 0.00 81 1013.8
20260505210044 10 348 12.9 20.9 0.00 0.00 0.00 81 1014.1
20260505204549 10 10 12.9 22.5 0.00 0.00 0.00 80 1014.1
20260505203052 10 5 17.7 25.7 0.00 0.00 0.00 80 1013.9
20260505201540 10 5 17.7 25.7 0.00 0.00 0.00 79 1013.9
20260505200038 10 343 16.1 24.1 0.00 0.00 0.00 79 1013.8
20260505194603 10 349 14.5 22.5 0.00 0.00 0.00 78 1013.8
20260505193042 10 24 14.5 25.7 0.00 0.00 0.00 77 1013.6
20260505191554 11 355 12.9 25.7 0.00 0.00 0.00 75 1013.5
20260505190042 11 15 14.5 29.0 0.00 0.00 0.00 72 1013.6
20260505184538 11 17 17.7 25.7 0.00 0.00 0.00 72 1013.5
20260505183043 12 5 17.7 27.4 0.00 0.00 0.00 71 1013.4
20260505181542 12 352 17.7 25.7 0.00 0.00 0.00 70 1013.4
20260505180047 12 5 19.3 25.7 0.00 0.00 0.00 69 1013.4
20260505174542 12 360 19.3 30.6 0.00 0.00 0.00 69 1013.4
20260505173037 13 12 14.5 29.0 0.00 0.00 0.00 68 1013.3
20260505171538 13 325 16.1 27.4 0.00 0.00 0.00 66 1013.3
20260505170044 13 355 16.1 25.7 0.00 0.00 0.00 66 1013.4
20260505164544 12 9 17.7 24.1 0.00 0.00 0.00 67 1013.3
20260505163039 13 325 17.7 25.7 0.00 0.00 0.00 64 1013.4
20260505161538 14 5 17.7 32.2 0.00 0.00 0.00 63 1013.3
20260505153038 15 5 14.5 32.2 0.00 0.03 0.00 60 1013.4
20260505151541 14 347 22.5 32.2 0.00 0.03 0.00 57 1013.3
20260505124543 14 13 16.1 27.4 0.00 0.18 0.00 60 1013.8
20260505123053 14 17 12.9 25.7 0.00 0.18 0.00 57 1013.8
20260505121612 15 11 8.0 24.1 0.00 0.18 0.00 58 1013.7
20260505120037 15 355 16.1 27.4 0.00 0.18 0.00 60 1013.9
20260505114540 14 348 9.7 29.0 0.00 0.23 0.00 59 1013.9
20260505113048 14 322 16.1 27.4 0.00 0.23 0.00 62 1014.0
20260505111548 14 21 12.9 24.1 0.00 0.23 0.00 61 1014.1
20260505101542 14 46 12.9 25.7 0.00 0.25 0.00 64 1014.5
20260505100113 14 24 14.5 25.7 0.00 0.25 0.00 64 1014.5
20260505094545 13 26 14.5 25.7 0.00 0.28 0.00 66 1014.7
20260505093042 13 5 12.9 24.1 0.00 0.28 0.00 67 1014.6
20260505091552 13 30 12.9 22.5 0.00 0.28 0.00 70 1014.6
20260505090053 12 341 12.9 24.1 0.00 0.28 0.00 74 1014.7
20260505084538 12 344 14.5 24.1 0.00 0.36 0.00 75 1014.7
20260505083047 12 360 14.5 24.1 0.00 0.36 0.00 76 1014.7
20260505081546 12 351 17.7 25.7 0.00 0.36 0.00 76 1014.6
20260505080050 11 15 12.9 24.1 0.00 0.36 0.00 81 1014.7
20260505074542 11 350 9.7 19.3 0.00 0.48 0.00 86 1014.5
20260505073056 10 13 9.7 17.7 0.00 0.48 0.00 88 1014.6
20260505071546 10 5 11.3 19.3 0.00 0.48 0.00 90 1014.7
20260505070043 10 329 11.3 19.3 0.00 0.48 0.00 93 1014.8
20260505064543 10 327 6.4 12.9 0.00 0.64 0.00 93 1014.8
20260505063048 10 9 6.4 14.5 0.00 0.64 0.00 93 1014.7
20260505061540 10 5 6.4 14.5 0.00 0.64 0.00 93 1014.6
20260505060039 10 355 8.0 14.5 0.00 0.64 0.00 94 1014.5
20260505054558 10 9 9.7 17.7 0.00 0.74 0.00 94 1014.4
20260505053045 10 352 11.3 17.7 0.00 0.74 0.00 94 1014.4
20260505051545 10 351 12.9 19.3 0.00 0.74 0.00 94 1014.4
20260505041548 10 349 11.3 16.1 0.00 0.74 0.00 94 1014.3
20260505040045 10 5 9.7 14.5 0.00 0.74 0.00 95 1014.3
20260505034541 10 5 8.0 12.9 0.00 0.74 0.00 95 1014.3
20260505033038 10 9 8.0 12.9 0.00 0.74 0.00 95 1014.3
20260505031541 10 360 6.4 12.9 0.00 0.74 0.00 94 1014.4
20260505030056 11 11 6.4 11.3 0.00 0.74 0.00 95 1014.3
20260505024543 11 15 6.4 14.5 0.00 0.74 0.00 95 1014.2
20260505023044 11 5 9.7 14.5 0.00 0.74 0.00 95 1014.3
20260505021550 11 5 8.0 12.9 0.00 0.74 0.00 95 1014.2
20260505020050 11 11 8.0 14.5 0.00 0.74 0.00 95 1014.3
20260505014540 11 16 6.4 12.9 0.00 0.74 0.00 95 1014.3
20260505013046 11 15 6.4 11.3 0.00 0.74 0.00 95 1014.4
20260505011544 11 9 6.4 12.9 0.00 0.74 0.00 96 1014.5
20260505010103 11 17 6.4 14.5 0.00 0.74 0.00 96 1014.6
20260505004539 11 15 8.0 14.5 0.00 0.74 0.00 96 1014.6
20260505003049 11 31 8.0 14.5 0.00 0.74 0.00 96 1014.6
20260505001543 11 24 8.0 14.5 0.00 0.74 0.00 96 1014.8
20260505000051 11 12 9.7 17.7 0.00 0.74 0.00 96 1014.9
20260504234541 11 5 9.7 14.5 0.00 0.74 0.00 96 1014.9
20260504233045 11 26 8.0 17.7 0.00 0.74 0.00 96 1014.9
20260504231538 11 22 9.7 14.5 0.00 0.74 0.00 95 1014.9
20260504230104 11 38 6.4 17.7 0.00 0.74 0.00 95 1014.9
20260504224558 11 29 6.4 12.9 0.00 0.74 0.74 95 1015.0
20260504223039 12 5 6.4 16.1 0.00 0.74 0.74 95 1014.9
20260504221539 11 351 9.7 16.1 0.00 0.74 0.74 94 1015.0
20260504220052 11 360 11.3 22.5 0.00 0.74 0.74 94 1014.9